Weather History for Savanna, IL

Change the Weather History Date:

Saturday, November 2, 2013

  Actual Average (KCWI) Record (KCWI)
Temperature  
Mean Temperature 40 °F -  
Max Temperature 51 °F 54 °F 74 °F (1961)
Min Temperature 30 °F 38 °F 15 °F (1951)
Degree Days  
Heating Degree Days 24    
Moisture  
Dew Point 34 °F    
Average Humidity 79    
Maximum Humidity 98    
Minimum Humidity 51    
Precipitation  
Precipitation 0.00 in - - ()
Sea Level Pressure  
Sea Level Pressure 29.99 in    
Wind  
Wind Speed 4 mph (NW)    
Max Wind Speed 13 mph    
Max Gust Speed 17 mph    
Visibility 8 miles    
Events Fog    
Averages and records for this station are not official NWS values.
T = Trace of Precipitation, MM = Missing Value Source: NWS Daily Summary

Daily Weather History Graph

Daily Weather History Graph

Search for Another Location

Airport:

Trip Planner

Search our weather history database for the weather conditions in past years. The results will help you decide how hot, cold, wet, or windy it might be!

Date:

Astronomy

Nov. 02, 2013 Rise Set
Actual Time 7:34 AM CDT 5:52 PM CDT
Civil Twilight 7:05 AM CDT 6:21 PM CDT
Nautical Twilight 6:32 AM CDT 6:54 PM CDT
Astronomical Twilight 5:59 AM CDT 7:27 PM CDT
Moon 6:31 AM CDT (11/2) 5:24 PM CDT (11/2)
Length of Visible Light 11h 16m
Length of Day
10h 18m
Waning Crescent, 1% of the Moon is Illuminated
Nov 2
Waning Crescent
Nov 3
New
Nov 9
First Quarter
Nov 17
Full
Nov 25
Last Quarter

Hourly Weather History & Observations

Time (CDT) Temp. Windchill Dew Point Humidity Pressure Visibility Wind Dir Wind Speed Gust Speed Precip Events Conditions
12:15 AM 37.6 °F - 36.5 °F 96% 29.77 in 4.0 mi Calm Calm - N/A   Clear
12:35 AM 37.6 °F - 36.7 °F 97% 29.78 in 2.5 mi Calm Calm - N/A   Scattered Clouds
12:55 AM 37.8 °F - 36.9 °F 97% 29.78 in 0.5 mi Calm Calm - N/A Fog Fog
1:15 AM 36.5 °F - 35.6 °F 97% 29.79 in 0.8 mi Calm Calm - N/A   Overcast
1:35 AM 35.8 °F - 34.9 °F 97% 29.79 in 0.2 mi Calm Calm - N/A Fog Fog
1:55 AM 35.1 °F - 34.3 °F 97% 29.81 in 0.2 mi Calm Calm - N/A Fog Fog
2:15 AM 35.2 °F - 34.7 °F 98% 29.81 in 0.2 mi Calm Calm - N/A Fog Fog
2:35 AM 35.2 °F - 34.5 °F 97% 29.81 in 1.5 mi Calm Calm - N/A   Overcast
2:55 AM 36.5 °F - 35.8 °F 97% 29.82 in 5.0 mi Calm Calm - N/A   Mostly Cloudy
3:15 AM 35.1 °F - 34.5 °F 98% 29.83 in 1.8 mi Calm Calm - N/A   Mostly Cloudy
3:35 AM 34.2 °F 31.2 °F 33.6 °F 98% 29.83 in 0.5 mi NW 3.5 mph - N/A Fog Fog
3:55 AM 33.6 °F - 33.1 °F 98% 29.83 in 0.5 mi Calm Calm - N/A Fog Fog
4:15 AM 34.7 °F 31.8 °F 34.2 °F 98% 29.83 in 4.0 mi NW 3.5 mph - N/A   Clear
4:35 AM 34.3 °F 31.4 °F 33.8 °F 98% 29.84 in 0.5 mi NW 3.5 mph - N/A Fog Fog
4:55 AM 36.5 °F 31.0 °F 35.8 °F 97% 29.85 in 5.0 mi NW 6.9 mph - N/A   Scattered Clouds
5:15 AM 37.2 °F 30.6 °F 36.5 °F 97% 29.86 in 7.0 mi NW 9.2 mph - N/A   Clear
5:35 AM 37.6 °F 31.6 °F 36.9 °F 97% 29.87 in 10.0 mi NW 8.1 mph - N/A   Scattered Clouds
5:55 AM 38.3 °F 32.5 °F 37.4 °F 97% 29.88 in 10.0 mi NW 8.1 mph - N/A   Overcast
6:15 AM 38.5 °F 32.7 °F 36.7 °F 93% 29.89 in 10.0 mi NW 8.1 mph - N/A   Overcast
6:35 AM 38.3 °F 32.5 °F 36.5 °F 93% 29.90 in 10.0 mi NW 8.1 mph - N/A   Overcast
6:55 AM 38.3 °F 32.5 °F 36.0 °F 91% 29.91 in 10.0 mi NW 8.1 mph - N/A   Mostly Cloudy
7:15 AM 37.8 °F 31.3 °F 35.4 °F 91% 29.91 in 10.0 mi NW 9.2 mph - N/A   Scattered Clouds
7:35 AM 39.0 °F 33.4 °F 35.8 °F 88% 29.92 in 10.0 mi NW 8.1 mph - N/A   Overcast
7:55 AM 38.1 °F 32.9 °F 35.2 °F 89% 29.93 in 10.0 mi NW 6.9 mph - N/A   Mostly Cloudy
8:15 AM 38.5 °F 33.4 °F 35.2 °F 88% 29.94 in 10.0 mi NW 6.9 mph - N/A   Clear
8:35 AM 39.4 °F 33.8 °F 35.6 °F 86% 29.95 in 10.0 mi WNW 8.1 mph - N/A   Clear
8:55 AM 39.7 °F 33.7 °F 35.6 °F 85% 29.96 in 10.0 mi WNW 9.2 mph - N/A   Clear
9:15 AM 40.1 °F 33.2 °F 35.6 °F 84% 29.97 in 10.0 mi NW 11.5 mph - N/A   Clear
9:35 AM 41.2 °F 35.0 °F 34.7 °F 78% 29.98 in 10.0 mi NW 10.4 mph 17.3 mph N/A   Clear
9:55 AM 42.3 °F 36.8 °F 34.7 °F 75% 29.99 in 10.0 mi NW 9.2 mph - N/A   Clear
10:15 AM 44.1 °F 39.5 °F 34.7 °F 70% 29.99 in 10.0 mi NW 8.1 mph - N/A   Scattered Clouds
10:35 AM 45.0 °F 38.9 °F 33.8 °F 65% 29.99 in 10.0 mi NW 12.7 mph - N/A   Scattered Clouds
10:55 AM 45.7 °F 40.2 °F 32.9 °F 61% 30.00 in 10.0 mi NW 11.5 mph 16.1 mph N/A   Mostly Cloudy
12:15 PM 48.0 °F - 32.4 °F 55% 30.01 in 10.0 mi WNW 9.2 mph - N/A   Clear
12:35 PM 48.9 °F - 32.5 °F 53% 30.01 in 10.0 mi NNW 8.1 mph - N/A   Clear
12:55 PM 50.2 °F - 32.5 °F 51% 30.01 in 10.0 mi NW 10.4 mph - N/A   Clear
1:15 PM 50.2 °F - 32.7 °F 51% 30.01 in 10.0 mi WNW 10.4 mph - N/A   Clear
1:35 PM 50.2 °F - 32.9 °F 52% 30.01 in 10.0 mi West 8.1 mph - N/A   Scattered Clouds
1:55 PM 48.6 °F - 34.3 °F 58% 30.01 in 10.0 mi WNW 6.9 mph - N/A   Scattered Clouds
2:15 PM 48.2 °F - 33.8 °F 58% 30.02 in 10.0 mi WNW 8.1 mph - N/A   Scattered Clouds
2:35 PM 51.4 °F - 35.4 °F 54% 30.02 in 10.0 mi WNW 5.8 mph - N/A   Mostly Cloudy
2:55 PM 49.5 °F - 34.9 °F 57% 30.02 in 10.0 mi NW 8.1 mph - N/A   Mostly Cloudy
3:15 PM 50.4 °F - 33.8 °F 53% 30.03 in 10.0 mi WNW 10.4 mph 16.1 mph N/A   Scattered Clouds
3:35 PM 50.9 °F - 34.0 °F 52% 30.03 in 10.0 mi West 8.1 mph - N/A   Mostly Cloudy
3:55 PM 49.6 °F - 32.9 °F 53% 30.04 in 10.0 mi WNW 9.2 mph - N/A   Mostly Cloudy
4:15 PM 47.5 °F - 33.6 °F 59% 30.04 in 10.0 mi WNW 6.9 mph - N/A   Scattered Clouds
4:35 PM 48.2 °F - 32.0 °F 54% 30.05 in 10.0 mi WNW 8.1 mph - N/A   Clear
4:55 PM 48.7 °F - 32.0 °F 52% 30.06 in 10.0 mi West 6.9 mph - N/A   Scattered Clouds
5:15 PM 48.0 °F - 31.8 °F 54% 30.07 in 10.0 mi NW 11.5 mph - N/A   Scattered Clouds
5:35 PM 46.8 °F - 32.0 °F 57% 30.08 in 10.0 mi NW 9.2 mph - N/A   Scattered Clouds
5:55 PM 45.5 °F 42.5 °F 32.0 °F 59% 30.08 in 10.0 mi NW 5.8 mph - N/A   Clear
6:15 PM 45.0 °F 40.6 °F 31.6 °F 60% 30.09 in 10.0 mi NW 8.1 mph - N/A   Clear
6:35 PM 42.8 °F 39.3 °F 31.3 °F 64% 30.10 in 10.0 mi NW 5.8 mph - N/A   Clear
6:55 PM 41.4 °F 38.4 °F 31.1 °F 67% 30.10 in 10.0 mi NNW 4.6 mph - N/A   Clear
7:15 PM 41.9 °F 39.0 °F 31.3 °F 66% 30.11 in 10.0 mi NNW 4.6 mph - N/A   Clear
7:35 PM 40.8 °F 38.8 °F 31.1 °F 68% 30.12 in 10.0 mi NW 3.5 mph - N/A   Clear
7:55 PM 39.0 °F 36.8 °F 31.3 °F 74% 30.13 in 10.0 mi North 3.5 mph - N/A   Clear
8:15 PM 36.9 °F 34.3 °F 30.7 °F 79% 30.13 in 10.0 mi North 3.5 mph - N/A   Clear
8:35 PM 36.3 °F - 31.3 °F 82% 30.13 in 10.0 mi Calm Calm - N/A   Clear
8:55 PM 38.3 °F - 31.1 °F 75% 30.14 in 10.0 mi Calm Calm - N/A   Clear
9:15 PM 37.6 °F - 31.1 °F 77% 30.14 in 10.0 mi Calm Calm - N/A   Clear
9:35 PM 34.9 °F - 30.6 °F 84% 30.15 in 10.0 mi Calm Calm - N/A   Clear
9:55 PM 34.0 °F - 30.9 °F 89% 30.15 in 10.0 mi Calm Calm - N/A   Clear
10:15 PM 32.2 °F - 30.2 °F 92% 30.16 in 10.0 mi Calm Calm - N/A   Clear
10:35 PM 32.7 °F - 31.1 °F 94% 30.16 in 10.0 mi Calm Calm - N/A   Clear
10:55 PM 31.8 °F 28.5 °F 30.7 °F 96% 30.16 in 7.0 mi NE 3.5 mph - N/A   Clear
11:15 PM 30.6 °F - 29.7 °F 96% 30.16 in 3.0 mi Calm Calm - N/A   Clear
11:35 PM 31.8 °F - 31.1 °F 97% 30.16 in 5.0 mi Calm Calm - N/A   Clear
11:55 PM 31.1 °F - 30.2 °F 96% 30.16 in 7.0 mi Calm Calm - N/A   Clear